Pittsburg, KS

2:32 PM CST on November 20, 2019 (GMT -0600)
Atkinson Municipal

Weather History for KPTS - October, 2019

Change the Weather History Date:

Sunday, October 20, 2019

  Actual Average (KJLN) Record (KJLN)
Temperature  
Mean Temperature 60 °F 59 °F  
Max Temperature 74 °F 70 °F 89 °F (1979)
Min Temperature 45 °F 47 °F 24 °F (1989)
Degree Days  
Heating Degree Days 6 7  
Month to date heating degree days 111  
Since 1 July heating degree days 153  
Cooling Degree Days 0 1  
Month to date cooling degree days 38  
Year to date cooling degree days 1680  
Growing Degree Days 10 (Base 50)    
Moisture  
Dew Point 52 °F    
Average Humidity 79    
Maximum Humidity 100    
Minimum Humidity 50    
Precipitation  
Precipitation 0.24 in 0.14 in 4.35 in (1983)
Month to date precipitation 2.61  
Year to date precipitation 38.53  
Sea Level Pressure  
Sea Level Pressure 29.74 in    
Wind  
Wind Speed 3 mph (SE)    
Max Wind Speed 13 mph    
Max Gust Speed 20 mph    
Visibility 8 miles    
Events Fog , Rain , Thunderstorm    
T = Trace of Precipitation, MM = Missing Value Source: NWS Daily Summary

Daily Weather History Graph

Daily Weather History Graph

Search for Another Location

Airport or City:

Astronomy

Oct. 20, 2019 Rise Set
Actual Time 7:31 AM CDT 6:35 PM CDT
Civil Twilight 7:05 AM CDT 7:01 PM CDT
Nautical Twilight 6:34 AM CDT 7:32 PM CDT
Astronomical Twilight 6:04 AM CDT 8:02 PM CDT
Moon 11:49 PM CDT 1:55 PM CDT
Length of Visible Light 11h 56m
Length of Day
11h 03m
Waning Gibbous, 59% of the Moon is Illuminated
Oct 20
Waning Gibbous
Oct 21
Last Quarter
Oct 27
New
Nov 4
First Quarter
Nov 12
Full

Hourly Weather History & Observations

Time (CDT) Temp. Dew Point Humidity Pressure Visibility Wind Dir Wind Speed Gust Speed Precip Events Conditions
12:15 AM 48.4 °F 48.6 °F 100% 29.85 in 7.0 mi Calm Calm - N/A   Clear
12:35 AM 47.8 °F 48.0 °F 100% 29.85 in 7.0 mi Calm Calm - N/A   Clear
12:55 AM 47.7 °F 47.7 °F 100% 29.84 in 7.0 mi Calm Calm - N/A   Clear
1:15 AM 47.3 °F 47.3 °F 100% 29.84 in 7.0 mi Calm Calm - N/A   Clear
1:35 AM 46.8 °F 46.9 °F 100% 29.84 in 7.0 mi Calm Calm - N/A   Clear
1:55 AM 46.4 °F 46.6 °F 100% 29.84 in 5.0 mi Calm Calm - N/A   Clear
2:15 AM 46.2 °F 46.4 °F 100% 29.83 in 5.0 mi Calm Calm - N/A   Clear
2:35 AM 46.4 °F 46.6 °F 100% 29.84 in 5.0 mi Calm Calm - N/A   Clear
2:55 AM 45.9 °F 46.0 °F 100% 29.84 in 7.0 mi Calm Calm - N/A   Clear
3:15 AM 45.5 °F 45.5 °F 100% 29.83 in 10.0 mi Calm Calm - N/A   Clear
3:35 AM 45.5 °F 45.5 °F 100% 29.84 in 7.0 mi Calm Calm - N/A   Mostly Cloudy
3:55 AM 45.5 °F 45.5 °F 100% 29.84 in 0.2 mi Calm Calm - N/A Fog Fog
4:35 AM 46.0 °F 46.0 °F 100% 29.84 in 0.5 mi Calm Calm - N/A Fog Fog
4:55 AM 46.4 °F 46.4 °F 100% 29.84 in 0.2 mi Calm Calm - N/A Fog Fog
5:15 AM 46.4 °F 46.4 °F 100% 29.83 in 0.2 mi Calm Calm - N/A Fog Fog
5:35 AM 46.4 °F 46.4 °F 100% 29.83 in 0.5 mi Calm Calm - N/A Fog Fog
5:55 AM 46.8 °F 46.9 °F 100% 29.84 in 0.5 mi Calm Calm - N/A Fog Fog
6:15 AM 46.8 °F 46.8 °F 100% 29.84 in 0.8 mi Calm Calm - N/A   Overcast
6:35 AM 47.5 °F 47.5 °F 100% 29.84 in 0.5 mi Calm Calm - N/A Fog Fog
6:55 AM 47.3 °F 47.3 °F 100% 29.84 in 0.5 mi Calm Calm - N/A Fog Fog
7:15 AM 47.1 °F 47.1 °F 100% 29.84 in 1.0 mi Calm Calm - N/A   Mostly Cloudy
7:35 AM 47.3 °F 47.3 °F 100% 29.84 in 7.0 mi ESE 4.6 mph - N/A   Clear
7:55 AM 46.9 °F 46.9 °F 100% 29.83 in 7.0 mi Calm Calm - N/A   Clear
8:15 AM - - N/A% 29.84 in 10.0 mi Calm Calm - N/A   Clear
8:35 AM 48.0 °F 48.0 °F 100% 29.84 in 10.0 mi SE 3.5 mph - N/A   Clear
8:55 AM 49.6 °F 49.6 °F 100% 29.85 in 10.0 mi SE 4.6 mph - N/A   Clear
9:35 AM 52.9 °F 51.4 °F 95% 29.85 in 10.0 mi SE 6.9 mph - N/A   Clear
9:55 AM 54.7 °F 52.5 °F 92% 29.84 in 10.0 mi SE 5.8 mph - N/A   Clear
10:15 AM 56.8 °F 53.2 °F 88% 29.84 in 10.0 mi ESE 9.2 mph - N/A   Clear
10:35 AM 58.6 °F 53.8 °F 84% 29.84 in 10.0 mi ESE 8.1 mph - N/A   Clear
10:55 AM 60.4 °F 53.6 °F 78% 29.84 in 10.0 mi ESE 8.1 mph - N/A   Clear
11:15 AM 61.9 °F 53.8 °F 75% 29.83 in 10.0 mi ESE 8.1 mph - N/A   Clear
11:35 AM 63.7 °F 54.3 °F 72% 29.82 in 10.0 mi SE 6.9 mph - N/A   Clear
11:55 AM 64.9 °F 54.1 °F 68% 29.82 in 10.0 mi ESE 9.2 mph - N/A   Clear
12:15 PM 66.4 °F 54.7 °F 66% 29.80 in 10.0 mi ESE 11.5 mph - N/A   Clear
12:35 PM 67.5 °F 55.4 °F 65% 29.79 in 10.0 mi SSE 10.4 mph - N/A   Clear
12:55 PM 68.9 °F 55.9 °F 63% 29.78 in 10.0 mi SSE 12.7 mph 19.6 mph N/A   Clear
1:35 PM 70.3 °F 56.5 °F 61% 29.74 in 10.0 mi SSE 11.5 mph - N/A   Clear
1:55 PM 70.9 °F 56.1 °F 59% 29.72 in 10.0 mi SE 12.7 mph - N/A   Clear
2:15 PM 71.6 °F 56.5 °F 59% 29.71 in 10.0 mi SSE 11.5 mph 16.1 mph N/A   Clear
2:35 PM 72.3 °F 56.7 °F 58% 29.70 in 10.0 mi South 10.4 mph - N/A   Clear
2:55 PM 72.7 °F 56.3 °F 56% 29.69 in 10.0 mi SSE 10.4 mph - N/A   Clear
3:15 PM 73.4 °F 56.1 °F 55% 29.69 in 10.0 mi SSE 8.1 mph - N/A   Clear
3:35 PM 73.8 °F 56.1 °F 54% 29.68 in 10.0 mi South 9.2 mph - N/A   Clear
3:55 PM 74.5 °F 55.6 °F 52% 29.67 in 10.0 mi South 9.2 mph - N/A   Clear
4:15 PM 74.8 °F 55.6 °F 51% 29.66 in 10.0 mi SSE 12.7 mph - N/A   Clear
4:35 PM 74.7 °F 55.4 °F 51% 29.65 in 10.0 mi SSE 10.4 mph 16.1 mph N/A   Clear
4:55 PM 74.5 °F 54.5 °F 50% 29.64 in 10.0 mi SE 11.5 mph 17.3 mph N/A   Clear
5:15 PM 74.1 °F 54.7 °F 51% 29.63 in 10.0 mi SE 8.1 mph - N/A   Clear
5:35 PM 73.6 °F 55.0 °F 52% 29.63 in 10.0 mi SE 8.1 mph - N/A   Clear
5:55 PM 72.1 °F 55.2 °F 55% 29.62 in 10.0 mi SE 8.1 mph - N/A   Clear
6:15 PM 70.9 °F 55.4 °F 58% 29.62 in 10.0 mi SE 8.1 mph - N/A   Clear
6:35 PM 70.0 °F 55.4 °F 60% 29.62 in 10.0 mi SE 6.9 mph - N/A   Clear
6:55 PM 68.9 °F 55.0 °F 61% 29.62 in 10.0 mi SE 6.9 mph - N/A   Clear
7:15 PM 68.5 °F 54.7 °F 61% 29.62 in 10.0 mi SE 6.9 mph - N/A   Clear
7:35 PM 68.4 °F 54.1 °F 60% 29.63 in 10.0 mi SE 8.1 mph - N/A   Mostly Cloudy
8:15 PM 67.3 °F 53.6 °F 61% 29.63 in 10.0 mi SSE 5.8 mph - N/A   Scattered Clouds
8:35 PM 65.8 °F 53.6 °F 65% 29.63 in 10.0 mi SE 3.5 mph - N/A   Clear
8:55 PM 65.5 °F 53.6 °F 65% 29.62 in 10.0 mi SE 5.8 mph - N/A   Clear
9:15 PM 64.9 °F 53.8 °F 67% 29.60 in 10.0 mi SE 5.8 mph - N/A   Clear
9:35 PM 64.6 °F 53.8 °F 68% 29.57 in 10.0 mi ESE 5.8 mph - N/A   Clear
9:55 PM 64.6 °F 53.8 °F 68% 29.56 in 10.0 mi SE 6.9 mph - N/A   Clear
10:15 PM 64.8 °F 54.1 °F 68% 29.53 in 10.0 mi SE 8.1 mph - N/A Thunderstorm Scattered Clouds
10:35 PM 64.6 °F 55.0 °F 71% 29.54 in 10.0 mi Calm Calm - N/A   Mostly Cloudy
10:55 PM 63.9 °F 56.3 °F 76% 29.57 in 7.0 mi West 5.8 mph - 0.02 in Rain , Thunderstorm Rain
11:15 PM 62.8 °F 59.0 °F 87% 29.57 in 3.0 mi SSE 3.5 mph - 0.14 in Rain , Thunderstorm Heavy Thunderstorms and Rain
11:35 PM 61.5 °F 59.9 °F 94% 29.59 in 7.0 mi SSE 8.1 mph - 0.18 in Rain , Thunderstorm Thunderstorms and Rain
11:55 PM 61.5 °F 60.3 °F 96% 29.60 in 5.0 mi SSW 8.1 mph - 0.22 in Rain , Thunderstorm Thunderstorms and Rain